Independence of the Seas — C6WW4 — position and weather

sailwx.info

Track history (hours):
 
Tides and Currents Weather Stations Pressure Air Temp Water Temp Dewpoint Dewpoint Depression Visibility Wind Speed Wind Dir Waves Ship Positions

Independence of the Seas

Last reported at 2014-Jul-23 06:33 UTC. Time now 2014-Jul-25 16:09 UTC.
Position N 38°41' W 009°10'.

Length 339 m; draft 8.8 m.

Type: Passenger vessel. MMSI: 309374000.

Date/timePositionNaut miles runAvg speedWind from/ knotsBaromVisibWave heightAir tempDewpointWater temp
2014-Jul-23 06:33N 38°41' W 009°10'1812.8
2014-Jul-23 05:08N 38°27' W 009°25'1220.5
2014-Jul-23 04:33N 38°15' W 009°25'2020.0
2014-Jul-23 03:33N 37°55' W 009°24'1817.6
2014-Jul-23 02:33N 37°38' W 009°23'1817.9
2014-Jul-23 01:31N 37°19' W 009°23'1817.7
2014-Jul-23 00:30N 37°01' W 009°22'1617.0
2014-Jul-22 23:33N 36°47' W 009°12'1717.5
2014-Jul-22 22:33N 36°42' W 008°51'1818.1
2014-Jul-22 21:33N 36°42' W 008°29'36811.8
2014-Jul-21 14:27N 37°14' W 000°49'1921.1
2014-Jul-21 13:31N 37°25' W 000°30'2220.2
2014-Jul-21 12:26N 37°43' W 000°13'14520.2
2014-Jul-21 05:15N 39°41' E 001°36'1420.9
2014-Jul-21 04:33N 39°51' E 001°49'2120.7
2014-Jul-21 03:33N 40°06' E 002°08'2120.6
2014-Jul-21 02:33N 40°20' E 002°27'2120.6
2014-Jul-21 01:33N 40°35' E 002°46'2020.4
2014-Jul-21 00:33N 40°50' E 003°05'2322.1
2014-Jul-20 23:32N 41°06' E 003°26'1818.8
2014-Jul-20 22:33N 41°19' E 003°44'2621.4
2014-Jul-20 21:21N 41°37' E 004°08'1820.2
2014-Jul-20 20:27N 41°50' E 004°25'2020.8
2014-Jul-20 19:30N 42°04' E 004°44'6421.0
2014-Jul-20 16:28N 42°49' E 005°44'1819.5
2014-Jul-20 15:33N 43°04' E 005°58'4 2.0
2014-Jul-20 13:34N 43°06' E 005°54'0 0.0
2014-Jul-20 12:22N 43°06' E 005°54'0 0.0
2014-Jul-20 11:25N 43°06' E 005°54'0 0.0
2014-Jul-20 10:19N 43°06' E 005°54'0 0.0
2014-Jul-20 09:31N 43°06' E 005°54'0 0.0
2014-Jul-20 08:10N 43°06' E 005°54'0 0.0
2014-Jul-20 07:31N 43°06' E 005°54'0 0.0
2014-Jul-20 06:34N 43°06' E 005°54'0 0.0
2014-Jul-20 05:31N 43°06' E 005°54'1 0.8
2014-Jul-20 04:33N 43°06' E 005°55'9 8.6
2014-Jul-20 03:33N 42°58' E 006°01'1514.5
2014-Jul-20 02:33N 42°54' E 006°19'2019.8
2014-Jul-20 01:33N 42°58' E 006°46'2120.8
2014-Jul-20 00:33N 43°03' E 007°13'2020.4
2014-Jul-19 23:33N 43°09' E 007°40'2020.5
2014-Jul-19 22:34N 43°14' E 008°08'2020.4
2014-Jul-19 21:34N 43°19' E 008°35'2019.8
2014-Jul-19 20:33N 43°24' E 009°01'1918.7
2014-Jul-19 19:33N 43°28' E 009°26'1818.4
2014-Jul-19 18:34N 43°32' E 009°51'1716.9
2014-Jul-19 17:33N 43°32' E 010°14'3 3.0
2014-Jul-19 16:33N 43°33' E 010°18'0 0.0
2014-Jul-19 15:33N 43°33' E 010°18'0 0.0
2014-Jul-19 14:33N 43°33' E 010°18'0 0.0
2014-Jul-19 13:03N 43°33' E 010°18'0 0.0
2014-Jul-19 12:30N 43°33' E 010°18'0 0.0
2014-Jul-19 11:33N 43°33' E 010°18'0 0.0
2014-Jul-19 10:33N 43°33' E 010°18'0 0.0
2014-Jul-19 09:33N 43°33' E 010°18'0 0.0
2014-Jul-19 08:33N 43°33' E 010°18'0 0.0
2014-Jul-19 07:33N 43°33' E 010°18'0 0.0
2014-Jul-19 06:30N 43°33' E 010°18'0 0.0
2014-Jul-19 05:30N 43°33' E 010°18'0 0.1
2014-Jul-19 04:33N 43°33' E 010°18'8 8.0
2014-Jul-19 03:33N 43°26' E 010°13'1212.3
2014-Jul-19 02:34N 43°14' E 010°16'1514.7
2014-Jul-19 01:34N 42°60' E 010°24'1413.8
2014-Jul-19 00:33N 42°48' E 010°32'1413.7
2014-Jul-18 23:33N 42°34' E 010°34'1413.9
2014-Jul-18 22:31N 42°20' E 010°36'1313.7
2014-Jul-18 21:33N 42°06' E 010°37'1414.2
2014-Jul-18 20:32N 42°01' E 010°55'1413.8
2014-Jul-18 19:33N 41°59' E 011°13'104 4.5
2014-Jul-17 20:32N 41°17' E 009°06'1717.1
2014-Jul-17 19:33N 41°15' E 008°44'1717.5
2014-Jul-17 18:34N 41°13' E 008°21'1817.5
2014-Jul-17 17:33N 41°09' E 007°58'2417.5
2014-Jul-17 16:11N 40°57' E 007°31'1217.4
2014-Jul-17 15:31N 40°51' E 007°18'1717.4
2014-Jul-17 14:33N 40°42' E 006°59'1717.2
2014-Jul-17 13:33N 40°33' E 006°40'1717.1
2014-Jul-17 12:33N 40°24' E 006°20'1717.3
2014-Jul-17 11:33N 40°15' E 006°01'8817.7
2014-Jul-17 06:33N 39°29' E 004°23'5618.0
2014-Jul-17 03:27N 39°00' E 003°21'1617.2
2014-Jul-17 02:32N 38°52' E 003°04'1717.3
2014-Jul-17 01:32N 38°45' E 002°44'2017.4
2014-Jul-17 00:23N 38°35' E 002°21'1717.8
2014-Jul-16 23:26N 38°28' E 002°02'1717.5
2014-Jul-16 22:27N 38°20' E 001°42'1515.8
2014-Jul-16 21:30N 38°13' E 001°25'1617.0
2014-Jul-16 20:33N 38°06' E 001°07'1917.3
2014-Jul-16 19:26N 37°57' E 000°45'2017.9
2014-Jul-16 18:19N 37°48' E 000°23'1317.4
2014-Jul-16 17:33N 37°42' E 000°07'3417.0
2014-Jul-16 15:32N 37°28' W 000°32'69 4.9
2014-Jul-16 01:30N 36°44' W 001°40'4914.9
2014-Jul-15 22:15N 36°21' W 002°33'24511.7
2014-Jul-15 01:22N 36°13' W 007°36'1720.6
2014-Jul-15 00:33N 36°17' W 007°56'2520.1
2014-Jul-14 23:19N 36°24' W 008°26'1520.1
2014-Jul-14 22:33N 36°27' W 008°44'3919.5
2014-Jul-14 20:33N 36°44' W 009°28'2220.0
2014-Jul-14 19:26N 37°05' W 009°39'1820.7
2014-Jul-14 18:33N 37°23' W 009°44'2120.8
2014-Jul-14 17:33N 37°43' W 009°49'2421.2
2014-Jul-14 16:25N 38°07' W 009°56'  
Track history (hours):
 
Tides and Currents Weather Stations Pressure Air Temp Water Temp Dewpoint Dewpoint Depression Visibility Wind Speed Wind Dir Waves Ship Positions

Independence of the Seas

Last reported at 2014-Jul-23 06:33 UTC. Time now 2014-Jul-25 16:09 UTC.
Position N 38°41' W 009°10'.

Length 339 m; draft 8.8 m.

Type: Passenger vessel. MMSI: 309374000.

Date/timePositionNaut miles runAvg speedWind from/ knotsBaromVisibWave heightAir tempDewpointWater temp
2014-Jul-23 06:33N 38°41' W 009°10'1812.8
2014-Jul-23 05:08N 38°27' W 009°25'1220.5
2014-Jul-23 04:33N 38°15' W 009°25'2020.0
2014-Jul-23 03:33N 37°55' W 009°24'1817.6
2014-Jul-23 02:33N 37°38' W 009°23'1817.9
2014-Jul-23 01:31N 37°19' W 009°23'1817.7
2014-Jul-23 00:30N 37°01' W 009°22'1617.0
2014-Jul-22 23:33N 36°47' W 009°12'1717.5
2014-Jul-22 22:33N 36°42' W 008°51'1818.1
2014-Jul-22 21:33N 36°42' W 008°29'36811.8
2014-Jul-21 14:27N 37°14' W 000°49'1921.1
2014-Jul-21 13:31N 37°25' W 000°30'2220.2
2014-Jul-21 12:26N 37°43' W 000°13'14520.2
2014-Jul-21 05:15N 39°41' E 001°36'1420.9
2014-Jul-21 04:33N 39°51' E 001°49'2120.7
2014-Jul-21 03:33N 40°06' E 002°08'2120.6
2014-Jul-21 02:33N 40°20' E 002°27'2120.6
2014-Jul-21 01:33N 40°35' E 002°46'2020.4
2014-Jul-21 00:33N 40°50' E 003°05'2322.1
2014-Jul-20 23:32N 41°06' E 003°26'1818.8
2014-Jul-20 22:33N 41°19' E 003°44'2621.4
2014-Jul-20 21:21N 41°37' E 004°08'1820.2
2014-Jul-20 20:27N 41°50' E 004°25'2020.8
2014-Jul-20 19:30N 42°04' E 004°44'6421.0
2014-Jul-20 16:28N 42°49' E 005°44'1819.5
2014-Jul-20 15:33N 43°04' E 005°58'4 2.0
2014-Jul-20 13:34N 43°06' E 005°54'0 0.0
2014-Jul-20 12:22N 43°06' E 005°54'0 0.0
2014-Jul-20 11:25N 43°06' E 005°54'0 0.0
2014-Jul-20 10:19N 43°06' E 005°54'0 0.0
2014-Jul-20 09:31N 43°06' E 005°54'0 0.0
2014-Jul-20 08:10N 43°06' E 005°54'0 0.0
2014-Jul-20 07:31N 43°06' E 005°54'0 0.0
2014-Jul-20 06:34N 43°06' E 005°54'0 0.0
2014-Jul-20 05:31N 43°06' E 005°54'1 0.8
2014-Jul-20 04:33N 43°06' E 005°55'9 8.6
2014-Jul-20 03:33N 42°58' E 006°01'1514.5
2014-Jul-20 02:33N 42°54' E 006°19'2019.8
2014-Jul-20 01:33N 42°58' E 006°46'2120.8
2014-Jul-20 00:33N 43°03' E 007°13'2020.4
2014-Jul-19 23:33N 43°09' E 007°40'2020.5
2014-Jul-19 22:34N 43°14' E 008°08'2020.4
2014-Jul-19 21:34N 43°19' E 008°35'2019.8
2014-Jul-19 20:33N 43°24' E 009°01'1918.7
2014-Jul-19 19:33N 43°28' E 009°26'1818.4
2014-Jul-19 18:34N 43°32' E 009°51'1716.9
2014-Jul-19 17:33N 43°32' E 010°14'3 3.0
2014-Jul-19 16:33N 43°33' E 010°18'0 0.0
2014-Jul-19 15:33N 43°33' E 010°18'0 0.0
2014-Jul-19 14:33N 43°33' E 010°18'0 0.0
2014-Jul-19 13:03N 43°33' E 010°18'0 0.0
2014-Jul-19 12:30N 43°33' E 010°18'0 0.0
2014-Jul-19 11:33N 43°33' E 010°18'0 0.0
2014-Jul-19 10:33N 43°33' E 010°18'0 0.0
2014-Jul-19 09:33N 43°33' E 010°18'0 0.0
2014-Jul-19 08:33N 43°33' E 010°18'0 0.0
2014-Jul-19 07:33N 43°33' E 010°18'0 0.0
2014-Jul-19 06:30N 43°33' E 010°18'0 0.0
2014-Jul-19 05:30N 43°33' E 010°18'0 0.1
2014-Jul-19 04:33N 43°33' E 010°18'8 8.0
2014-Jul-19 03:33N 43°26' E 010°13'1212.3
2014-Jul-19 02:34N 43°14' E 010°16'1514.7
2014-Jul-19 01:34N 42°60' E 010°24'1413.8
2014-Jul-19 00:33N 42°48' E 010°32'1413.7
2014-Jul-18 23:33N 42°34' E 010°34'1413.9
2014-Jul-18 22:31N 42°20' E 010°36'1313.7
2014-Jul-18 21:33N 42°06' E 010°37'1414.2
2014-Jul-18 20:32N 42°01' E 010°55'1413.8
2014-Jul-18 19:33N 41°59' E 011°13'104 4.5
2014-Jul-17 20:32N 41°17' E 009°06'1717.1
2014-Jul-17 19:33N 41°15' E 008°44'1717.5
2014-Jul-17 18:34N 41°13' E 008°21'1817.5
2014-Jul-17 17:33N 41°09' E 007°58'2417.5
2014-Jul-17 16:11N 40°57' E 007°31'1217.4
2014-Jul-17 15:31N 40°51' E 007°18'1717.4
2014-Jul-17 14:33N 40°42' E 006°59'1717.2
2014-Jul-17 13:33N 40°33' E 006°40'1717.1
2014-Jul-17 12:33N 40°24' E 006°20'1717.3
2014-Jul-17 11:33N 40°15' E 006°01'8817.7
2014-Jul-17 06:33N 39°29' E 004°23'5618.0
2014-Jul-17 03:27N 39°00' E 003°21'1617.2
2014-Jul-17 02:32N 38°52' E 003°04'1717.3
2014-Jul-17 01:32N 38°45' E 002°44'2017.4
2014-Jul-17 00:23N 38°35' E 002°21'1717.8
2014-Jul-16 23:26N 38°28' E 002°02'1717.5
2014-Jul-16 22:27N 38°20' E 001°42'1515.8
2014-Jul-16 21:30N 38°13' E 001°25'1617.0
2014-Jul-16 20:33N 38°06' E 001°07'1917.3
2014-Jul-16 19:26N 37°57' E 000°45'2017.9
2014-Jul-16 18:19N 37°48' E 000°23'1317.4
2014-Jul-16 17:33N 37°42' E 000°07'3417.0
2014-Jul-16 15:32N 37°28' W 000°32'69 4.9
2014-Jul-16 01:30N 36°44' W 001°40'4914.9
2014-Jul-15 22:15N 36°21' W 002°33'24511.7
2014-Jul-15 01:22N 36°13' W 007°36'1720.6
2014-Jul-15 00:33N 36°17' W 007°56'2520.1
2014-Jul-14 23:19N 36°24' W 008°26'1520.1
2014-Jul-14 22:33N 36°27' W 008°44'3919.5
2014-Jul-14 20:33N 36°44' W 009°28'2220.0
2014-Jul-14 19:26N 37°05' W 009°39'1820.7
2014-Jul-14 18:33N 37°23' W 009°44'2120.8
2014-Jul-14 17:33N 37°43' W 009°49'2421.2
2014-Jul-14 16:25N 38°07' W 009°56'  

Dump ship's entire track history